Content
SEND FEEDBACK

Daily
Averages
Monthly
Summary
United Kingdom

BEDFORD, ENGLAND


Home > Europe > United Kingdom > England
Elevation: 293 feet     Latitude: 52 13N     Longitude: 000 29W

WEATHER
 
SELECT A DAY
Number of Records: 71,992;   Date Range: 7/1/96 - 7/9/14
 
SHARE

PRINT THIS DATA

[ ← Previous Day ]
WEATHER ALMANAC - MAY 17, 2013
[ Next Day → ]
[ °C ]   °F
Weather ElementAverageHighLow
Temperature49.7 °F51.8 °F (11:20 am)46.4 °F (8:20 am)
Dewpoint44 °F44.6 °F (8:20 am)42.8 °F (9:50 am)
Humidity80.8 %93 % (8:20 am)71 % (2:50 pm)
Barometer29.74 in29.77 in (2:20 pm)29.68 in (8:20 am)
Wind Speed8.3 mph12.7 mph (11:50 am)
Weather ElementAverage
Visibility5.8 mi
Wind DirectionSE (132 °)

Weather ElementTotal
Precipitation---
Heating Degree Days15.9 (Base 65)
Averaged from 20 records on May 17, 2013
WEATHER CONDITIONS BREAKOUT
WIND DIRECTION BREAKOUT
WEATHER BY HOUR - MAY 17, 2013
[ °C ]   °F
Local TimeTemperatureDewpointHumidityBarometerVisibilityWind DirectionWind SpeedGust SpeedPrecipitationEventsConditions
8:20 AM46.4 °F44.6 °F93 %29.68 in2.8 miNE (40°)8.1 mphScattered Clouds
8:50 AM46.4 °F44.6 °F93 %29.68 in2.8 miNE (40°)8.1 mphScattered Clouds
9:20 AM48.2 °F44.6 °F87 %29.71 in5.0 miNE (50°)8.1 mphScattered Clouds
9:50 AM48.2 °F42.8 °F82 %29.71 in6.2 miNNE (30°)6.9 mphScattered Clouds
10:20 AM48.2 °F42.8 °F82 %29.71 in6.2 miNorth (10°)6.9 mphScattered Clouds
10:50 AM50.0 °F44.6 °F82 %29.74 in6.2 miNNE (20°)8.1 mphMostly Cloudy
11:20 AM51.8 °F44.6 °F76 %29.74 in6.2 miNorth (360°)5.8 mphMostly Cloudy
11:50 AM48.2 °F44.6 °F87 %29.74 in6.2 miNorth (10°)12.7 mphMostly Cloudy
12:20 PM50.0 °F44.6 °F82 %29.74 in6.2 miNNE (30°)9.2 mphMostly Cloudy
12:50 PM50.0 °F44.6 °F82 %29.74 in6.2 miNorth (10°)8.1 mphMostly Cloudy
1:20 PM50.0 °F44.6 °F82 %29.74 in6.2 miNorth (10°)12.7 mphMostly Cloudy
1:50 PM48.2 °F42.8 °F82 %29.74 in6.2 miNorth (10°)10.4 mphMostly Cloudy
2:20 PM51.8 °F44.6 °F76 %29.77 in6.2 miNorth (10°)8.1 mphMostly Cloudy
2:50 PM51.8 °F42.8 °F71 %29.74 in6.2 miNorth (10°)6.9 mphScattered Clouds
3:20 PM51.8 °F42.8 °F71 %29.74 in6.2 miNNW (340°)8.1 mphMostly Cloudy
3:50 PM51.8 °F42.8 °F71 %29.74 in6.2 miNNW (330°)6.9 mphMostly Cloudy
4:20 PM50.0 °F42.8 °F76 %29.77 in6.2 miNNW (330°)9.2 mphMostly Cloudy
4:50 PM51.8 °F44.6 °F76 %29.77 in6.2 miNNW (330°)6.9 mphMostly Cloudy
5:20 PM50.0 °F44.6 °F82 %29.77 in6.2 miNNW (340°)8.1 mphScattered Clouds
5:50 PM50.0 °F44.6 °F82 %29.77 in6.2 miNNW (330°)6.9 mphMostly Cloudy
Hourly data recorded from EGTC, located miles away from Bedford, England







STORIES FROM OUR PARTNERS